�������l�o���
Date,Time,MP-1(��Sv/h),MP-2(��Sv/h),MP-3(��Sv/h),MP-4(��Sv/h),MP-5(��Sv/h),MP-6(��Sv/h),MP-7(��Sv/h),MP-8(��Sv/h),����,����(m/s),���J
2018/10/30,00:00,0.780,1.179,0.831,1.468,1.069,0.460,0.808,0.764,��,1.5,��
2018/10/30,00:10,0.780,1.177,0.830,1.468,1.066,0.461,0.805,0.764,��쐼,0.9,��
2018/10/30,00:20,0.781,1.177,0.829,1.470,1.069,0.461,0.808,0.765,��쓌,2.3,��
2018/10/30,00:30,0.782,1.178,0.829,1.470,1.067,0.459,0.806,0.764,��쐼,2.8,��
2018/10/30,00:40,0.780,1.177,0.828,1.470,1.067,0.459,0.807,0.762,��쐼,3.8,��
2018/10/30,00:50,0.780,1.177,0.828,1.468,1.068,0.460,0.807,0.764,��쓌,4.3,��
2018/10/30,01:00,0.779,1.176,0.828,1.474,1.067,0.460,0.807,0.762,��쓌,4.1,��
2018/10/30,01:10,0.780,1.177,0.828,1.469,1.069,0.459,0.809,0.763,��,4.4,��
2018/10/30,01:20,0.782,1.176,0.828,1.472,1.069,0.459,0.806,0.762,��,5.2,��
2018/10/30,01:30,0.781,1.179,0.830,1.470,1.066,0.460,0.807,0.763,��,4.9,��
2018/10/30,01:40,0.779,1.177,0.830,1.473,1.066,0.460,0.805,0.764,��쐼,5.5,��
2018/10/30,01:50,0.784,1.176,0.828,1.469,1.068,0.459,0.806,0.764,�쐼,4.5,��
2018/10/30,02:00,0.782,1.176,0.829,1.470,1.066,0.460,0.808,0.762,�쐼,4.1,��
2018/10/30,02:10,0.781,1.176,0.828,1.471,1.067,0.462,0.806,0.761,�쐼,3.8,��
2018/10/30,02:20,0.780,1.174,0.828,1.471,1.069,0.460,0.807,0.764,��쐼,4.9,��
2018/10/30,02:30,0.780,1.178,0.828,1.472,1.067,0.460,0.807,0.762,��쐼,6.4,��
2018/10/30,02:40,0.779,1.177,0.828,1.472,1.068,0.460,0.806,0.763,��쐼,5.9,��
2018/10/30,02:50,0.780,1.177,0.827,1.472,1.068,0.459,0.807,0.763,��쐼,6.1,��
2018/10/30,03:00,0.780,1.176,0.828,1.472,1.067,0.459,0.807,0.762,��쐼,5.9,��
2018/10/30,03:10,0.778,1.176,0.828,1.469,1.070,0.461,0.807,0.762,��쐼,7.1,��
2018/10/30,03:20,0.779,1.176,0.829,1.471,1.069,0.460,0.808,0.763,��쐼,7.0,��
2018/10/30,03:30,0.779,1.175,0.828,1.472,1.068,0.459,0.806,0.763,��쐼,7.0,��
2018/10/30,03:40,0.779,1.179,0.827,1.471,1.067,0.460,0.805,0.762,��쐼,7.3,��
2018/10/30,03:50,0.778,1.176,0.827,1.470,1.068,0.461,0.807,0.764,��,6.8,��
2018/10/30,04:00,0.782,1.176,0.827,1.470,1.068,0.460,0.806,0.762,��쐼,6.4,��
2018/10/30,04:10,0.779,1.178,0.828,1.473,1.066,0.460,0.807,0.763,��쐼,5.3,��
2018/10/30,04:20,0.779,1.175,0.827,1.470,1.066,0.459,0.807,0.762,�쐼,5.5,��
2018/10/30,04:30,0.780,1.177,0.827,1.469,1.066,0.459,0.806,0.763,�쐼,5.0,��
2018/10/30,04:40,0.780,1.179,0.828,1.472,1.066,0.460,0.807,0.762,�쐼,4.5,��
2018/10/30,04:50,0.780,1.176,0.827,1.471,1.067,0.461,0.807,0.764,�쐼,4.5,��
2018/10/30,05:00,0.780,1.177,0.828,1.471,1.068,0.461,0.808,0.763,�쐼,4.5,��
2018/10/30,05:10,0.778,1.176,0.828,1.470,1.065,0.461,0.806,0.763,�쐼,4.6,��
2018/10/30,05:20,0.779,1.174,0.828,1.470,1.065,0.460,0.808,0.763,�쐼,5.0,��
2018/10/30,05:30,0.780,1.176,0.828,1.473,1.065,0.460,0.808,0.763,�쐼,5.4,��
2018/10/30,05:40,0.780,1.177,0.828,1.473,1.065,0.460,0.808,0.762,�쐼,5.9,��
2018/10/30,05:50,0.780,1.175,0.829,1.475,1.065,0.460,0.808,0.764,�쐼,5.9,��
2018/10/30,06:00,0.782,1.177,0.828,1.471,1.069,0.461,0.809,0.762,�쐼,6.3,��
2018/10/30,06:10,0.781,1.178,0.829,1.471,1.066,0.460,0.807,0.764,��쐼,5.7,��
2018/10/30,06:20,0.781,1.176,0.831,1.470,1.065,0.461,0.808,0.763,��쐼,5.0,��
2018/10/30,06:30,0.781,1.177,0.830,1.473,1.065,0.461,0.809,0.764,��쐼,4.2,��
2018/10/30,06:40,0.779,1.178,0.829,1.473,1.066,0.463,0.805,0.763,�쐼,3.8,��
2018/10/30,06:50,0.781,1.175,0.827,1.472,1.067,0.461,0.807,0.763,�쐼,4.6,��
2018/10/30,07:00,0.783,1.176,0.830,1.471,1.068,0.461,0.808,0.764,�쐼,4.0,��
2018/10/30,07:10,0.783,1.175,0.827,1.471,1.068,0.461,0.810,0.763,�쐼,3.6,��
2018/10/30,07:20,0.780,1.177,0.828,1.471,1.067,0.460,0.807,0.763,�쐼,2.6,��
2018/10/30,07:30,0.783,1.177,0.827,1.473,1.067,0.461,0.810,0.765,���쐼,2.6,��
2018/10/30,07:40,0.783,1.178,0.829,1.472,1.068,0.462,0.809,0.763,�쐼,1.9,��
2018/10/30,07:50,0.781,1.179,0.829,1.471,1.068,0.462,0.810,0.764,��,1.9,��
2018/10/30,08:00,0.781,1.177,0.828,1.472,1.068,0.461,0.808,0.766,��,1.4,��
2018/10/30,08:10,0.781,1.178,0.829,1.471,1.070,0.462,0.810,0.764,��쐼,1.1,��
2018/10/30,08:20,0.782,1.175,0.828,1.470,1.069,0.461,0.809,0.765,��쐼,0.8,��
2018/10/30,08:30,0.785,1.176,0.827,1.471,1.070,0.462,0.806,0.765,���쐼,0.6,��
2018/10/30,08:40,0.783,1.173,0.828,1.470,1.068,0.462,0.806,0.765,-,CALM,��
2018/10/30,08:50,0.782,1.174,0.830,1.470,1.070,0.462,0.808,0.765,��,3.4,��
2018/10/30,09:00,0.780,1.173,0.828,1.473,1.069,0.461,0.807,0.766,���쐼,3.4,��
2018/10/30,09:10,0.779,1.172,0.829,1.474,1.068,0.460,0.807,0.765,��,8.9,��
2018/10/30,09:20,0.780,1.174,0.831,1.472,1.066,0.463,0.808,0.766,���쐼,8.7,��
2018/10/30,09:30,0.780,1.174,0.828,1.471,1.069,0.462,0.808,0.763,���쐼,8.7,��
2018/10/30,09:40,0.779,1.173,0.831,1.472,1.071,0.460,0.809,0.765,���k��,5.0,��
2018/10/30,09:50,0.781,1.175,0.829,1.472,1.068,0.462,0.808,0.765,��,3.6,��
2018/10/30,10:00,0.781,1.177,0.831,1.471,1.069,0.461,0.807,0.764,��,5.6,��
2018/10/30,10:10,0.783,1.173,0.831,1.472,1.069,0.457,0.808,0.763,���k��,4.1,��
2018/10/30,10:20,0.782,1.175,0.827,1.474,1.068,0.457,0.810,0.764,���k��,2.5,��
2018/10/30,10:30,0.782,1.176,0.829,1.476,1.069,0.457,0.809,0.764,���k��,5.7,��
2018/10/30,10:40,0.781,1.177,0.829,1.471,1.070,0.459,0.807,0.764,�k��,4.9,��
2018/10/30,10:50,0.782,1.173,0.829,1.475,1.069,0.461,0.808,0.763,���k��,6.2,��
2018/10/30,11:00,0.782,1.177,-,1.474,1.070,0.461,0.807,0.762,���k��,7.4,��
2018/10/30,11:10,0.783,1.174,-,1.475,1.068,0.462,0.808,0.764,�k��,5.8,��
2018/10/30,11:20,0.784,1.178,-,1.476,1.070,0.461,0.810,0.765,���k��,5.5,��
2018/10/30,11:30,0.785,1.178,-,1.476,1.073,0.459,0.808,0.764,���k��,8.4,��
2018/10/30,11:40,0.783,1.180,-,1.476,1.072,0.460,0.809,0.764,���k��,7.2,��
2018/10/30,11:50,0.784,1.180,-,1.478,1.072,0.460,0.807,0.764,���k��,8.8,��
2018/10/30,12:00,0.783,1.182,-,1.478,1.073,0.462,0.810,0.766,���k��,5.9,��
2018/10/30,12:10,0.784,1.181,-,1.477,1.073,0.461,0.811,0.763,���k��,5.8,��
2018/10/30,12:20,0.787,1.178,-,1.478,1.071,0.462,0.809,0.764,��,6.3,��
2018/10/30,12:30,0.784,1.180,-,1.476,1.073,0.463,0.809,0.763,���k��,5.5,��
2018/10/30,12:40,0.784,1.179,-,1.480,1.073,0.461,0.810,0.764,���k��,8.3,��
2018/10/30,12:50,0.785,1.180,-,1.477,1.073,0.462,0.810,0.762,��,8.1,��
2018/10/30,13:00,0.785,1.178,-,1.478,1.075,0.461,0.809,0.763,��,8.1,��
2018/10/30,13:10,0.784,1.178,-,1.478,1.074,0.462,0.808,0.761,��,5.8,��
2018/10/30,13:20,0.785,1.180,-,1.477,1.076,0.459,0.807,0.764,��,7.6,��
2018/10/30,13:30,0.785,1.178,-,1.479,1.075,0.461,0.809,0.764,���k��,7.8,��
2018/10/30,13:40,0.784,1.180,-,1.478,1.073,0.461,0.808,0.762,���k��,9.8,��
2018/10/30,13:50,0.785,1.180,-,1.478,1.075,0.460,0.808,0.763,���k��,7.5,��
2018/10/30,14:00,0.784,1.182,-,1.480,1.076,0.460,0.808,0.763,���k��,7.4,��
2018/10/30,14:10,0.785,1.180,-,1.478,1.074,0.459,0.808,0.764,���k��,11.0,��
2018/10/30,14:20,0.783,1.178,-,1.478,1.077,0.458,0.809,0.762,���k��,6.7,��
2018/10/30,14:30,0.786,1.178,-,1.480,1.077,0.458,0.810,0.762,���k��,6.8,��
2018/10/30,14:40,0.782,1.180,-,1.481,1.076,0.459,0.807,0.762,���k��,6.2,��
2018/10/30,14:50,0.785,1.179,-,1.483,1.077,0.459,0.809,0.763,���k��,6.6,��
2018/10/30,15:00,0.785,1.179,-,1.482,1.075,0.457,0.809,0.763,���k��,5.0,��
2018/10/30,15:10,0.787,1.177,-,1.482,1.073,0.458,0.806,0.762,���k��,2.0,��
2018/10/30,15:20,0.785,1.182,-,1.482,1.074,0.460,0.806,0.762,���k��,3.9,��
2018/10/30,15:30,0.784,1.179,-,1.481,1.075,0.460,0.809,0.762,���k��,3.4,��
2018/10/30,15:40,0.783,1.178,0.832,1.480,1.076,0.463,0.810,0.765,�k��,5.1,��
2018/10/30,15:50,0.784,1.182,0.833,1.482,1.075,0.463,0.807,0.763,���k��,5.7,��
2018/10/30,16:00,0.784,1.184,0.833,1.482,1.075,0.463,0.807,0.763,���k��,4.2,��
2018/10/30,16:10,0.784,1.186,0.833,1.481,1.076,0.463,0.807,0.765,�k��,4.0,��
2018/10/30,16:20,0.783,1.184,0.833,1.480,1.076,0.463,0.809,0.765,���k��,4.6,��
2018/10/30,16:30,0.785,1.188,0.832,1.480,1.076,0.462,0.810,0.766,���k��,5.9,��
2018/10/30,16:40,0.782,1.189,0.831,1.481,1.072,0.462,0.808,0.766,�k��,6.4,��
2018/10/30,16:50,0.782,1.189,0.833,1.481,1.071,0.463,0.806,0.764,�k��,5.6,��
2018/10/30,17:00,0.781,1.189,0.833,1.482,1.073,0.463,0.809,0.765,�k��,6.3,��
2018/10/30,17:10,0.785,1.190,0.835,1.483,1.074,0.462,0.808,0.766,�k��,5.6,��
2018/10/30,17:20,0.784,1.189,0.835,1.480,1.077,0.463,0.809,0.767,�k�k��,5.9,��
2018/10/30,17:30,0.785,1.187,0.835,1.480,1.076,0.462,0.808,0.765,�k�k��,4.9,��
2018/10/30,17:40,0.784,1.187,0.834,1.480,1.077,0.461,0.809,0.763,�k��,3.7,��
2018/10/30,17:50,0.786,1.192,0.835,1.484,1.078,0.463,0.809,0.764,�k��,3.1,��
2018/10/30,18:00,0.785,1.188,0.834,1.484,1.076,0.462,0.808,0.763,�k�k��,1.5,��
2018/10/30,18:10,0.785,1.190,0.834,1.480,1.076,0.462,0.809,0.765,-,CALM,��
2018/10/30,18:20,0.786,1.188,0.835,1.481,1.080,0.461,0.809,0.764,�k,1.2,��
2018/10/30,18:30,0.786,1.187,0.838,1.481,1.077,0.462,0.808,0.764,�k��,4.2,��
2018/10/30,18:40,0.786,1.189,0.835,1.485,1.077,0.461,0.809,0.764,�k��,4.8,��
2018/10/30,18:50,0.785,1.188,0.836,1.483,1.076,0.462,0.809,0.765,���k��,7.4,��
2018/10/30,19:00,0.785,1.189,0.836,1.484,1.077,0.462,0.810,0.764,���k��,3.6,��
2018/10/30,19:10,0.785,1.191,0.836,1.481,1.078,0.460,0.810,0.765,�k��,3.5,��
2018/10/30,19:20,0.786,1.188,0.837,1.482,1.078,0.462,0.810,0.764,�k��,2.5,��
2018/10/30,19:30,0.786,1.189,0.836,1.483,1.077,0.460,0.808,0.765,�k��,3.9,��
2018/10/30,19:40,0.785,1.186,0.835,1.483,1.078,0.462,0.810,0.763,���k��,4.5,��
2018/10/30,19:50,0.784,1.188,0.833,1.482,1.077,0.460,0.809,0.764,���k��,5.6,��
2018/10/30,20:00,0.787,1.190,0.835,1.481,1.079,0.461,0.809,0.764,���k��,4.0,��
2018/10/30,20:10,0.785,1.186,0.836,1.484,1.078,0.462,0.810,0.765,�k��,4.9,��
2018/10/30,20:20,0.787,1.189,0.834,1.482,1.080,0.462,0.810,0.765,�k�k��,3.0,��
2018/10/30,20:30,0.786,1.190,0.835,1.481,1.076,0.461,0.810,0.762,�k��,3.9,��
2018/10/30,20:40,0.785,1.188,0.834,1.484,1.075,0.462,0.809,0.764,�k�k��,4.1,��
2018/10/30,20:50,0.785,1.189,0.835,1.484,1.078,0.461,0.808,0.764,�k,1.9,��
2018/10/30,21:00,0.787,1.188,0.835,1.483,1.078,0.461,0.809,0.764,�k,0.9,��
2018/10/30,21:10,0.786,1.189,0.836,1.483,1.077,0.461,0.811,0.763,�k��,2.0,��
2018/10/30,21:20,0.786,1.188,0.836,1.482,1.077,0.462,0.811,0.765,���k��,2.6,��
2018/10/30,21:30,0.784,1.188,0.835,1.481,1.078,0.462,0.809,0.766,�k��,3.2,��
2018/10/30,21:40,0.785,1.189,0.835,1.481,1.079,0.462,0.809,0.765,�k�k��,2.3,��
2018/10/30,21:50,0.786,1.188,0.835,1.481,1.079,0.461,0.810,0.765,�k,2.0,��
2018/10/30,22:00,0.784,1.186,0.835,1.481,1.080,0.464,0.808,0.766,�k�k��,2.9,��
2018/10/30,22:10,0.785,1.188,0.834,1.482,1.077,0.461,0.810,0.763,�k,4.3,��
2018/10/30,22:20,0.784,1.187,0.836,1.482,1.078,0.462,0.811,0.763,�k�k��,3.8,��
2018/10/30,22:30,0.784,1.186,0.833,1.483,1.079,0.462,0.812,0.765,�k��,1.7,��
2018/10/30,22:40,0.785,1.187,0.835,1.482,1.078,0.461,0.808,0.765,�k��,2.0,��
2018/10/30,22:50,0.785,1.187,0.835,1.482,1.076,0.461,0.811,0.764,�k��,2.3,��
2018/10/30,23:00,0.786,1.187,0.834,1.482,1.078,0.461,0.810,0.766,�k��,2.6,��
2018/10/30,23:10,0.785,1.186,0.836,1.483,1.077,0.460,0.810,0.764,���k��,4.9,��
2018/10/30,23:20,0.785,1.187,0.834,1.485,1.076,0.462,0.810,0.764,���k��,5.6,��
2018/10/30,23:30,0.785,1.188,0.836,1.482,1.077,0.462,0.809,0.764,�k��,4.0,��
2018/10/30,23:40,0.785,1.186,0.835,1.485,1.076,0.461,0.812,0.764,�k�k��,3.3,��
2018/10/30,23:50,0.784,1.189,0.836,1.482,1.077,0.461,0.811,0.766,�k��,3.3,��
